(482898) = 2014 GW41

Discovered at Mount Lemmon on 2014-03-08 by Mt. Lemmon Survey.

Orbit

Orbit type: Main Belt

Note: WebGL enabled browser required.

epoch2022-01-21.0
epoch JD2459600.5
perihelion date2021-12-06.50074
perihelion JD2459555.00074
argument of perihelion (°)104.74029
ascending node (°)28.52196
inclination (°)13.57043
eccentricity0.1058978
perihelion distance (AU)2.3380900
Tisserand w.r.t. Jupiter3.4
ΔV w.r.t. Earth (km/sec)10.5
semimajor axis (AU)2.6150143
mean anomaly (°)10.60467
mean daily motion (°/day)0.23307340
aphelion distance (AU)2.892
period (years)4.23
P-vector [x]-0.67244679
P-vector [y]0.55610533
P-vector [z]0.48842827
Q-vector [x]-0.73161630
Q-vector [y]-0.59931184
Q-vector [z]-0.32490445
absolute magnitude16.8
phase slope0.15
uncertainty0
referenceMPO 700601
observations used277
oppositions9
arc length (days)7709
first opposition used2001
last opposition used2022
residual rms (arc-secs)0.77
perturbers coarse indicatorM-v
perturbers precise indicator003Ek
first observation date used2001-03-20.0
last observation date used2022-04-28.0
computer namePan
Minimum Orbit Intersection Distances (in AU)
for orbit epoch: 2458200.5, reference: MPO413570
Mercury1.9988
Venus1.64093
Earth1.39783
Mars0.75993
Jupiter2.19246
Saturn6.66367
Uranus15.7792
Neptune27.1225

Observations

297 total observations over interval: 2001 03 20.44437 – 2022 05 25.186457
These data are available for download (format description).

Date (UT) J2000 RA J2000 Dec Magn Location Ref
2001 03 20.44437 12 07 42.46 +12 11 06.1 21.0   608 – Haleakala-AMOS MPS 871534
2001 03 20.45500 12 07 41.73 +12 11 06.1 20.8   608 – Haleakala-AMOS MPS 871534
2001 03 20.46601 12 07 40.99 +12 11 06.5 20.4   608 – Haleakala-AMOS MPS 871534
2003 11 20.10922 00 36 18.58 +02 39 34.4 19.9 R 695 – Kitt Peak MPS 558888
2003 11 20.19483 00 36 16.60 +02 39 49.0   695 – Kitt Peak MPS 558888
2007 10 20.26998 23 33 45.18 -12 43 24.8 21.0 V G96 – Mt. Lemmon Survey MPS 558888
2007 10 20.27654 23 33 44.96 -12 43 24.3 21.1 V G96 – Mt. Lemmon Survey MPS 558888
2007 10 20.28318 23 33 44.67 -12 43 22.9 20.9 V G96 – Mt. Lemmon Survey MPS 558888
2007 10 20.28978 23 33 44.42 -12 43 21.6 21.0 V G96 – Mt. Lemmon Survey MPS 558888
2014 03 08.46035 14 48 28.72 -14 54 37.3 20.6 V G96 – Mt. Lemmon Survey MPS 513956
2014 03 08.46759 14 48 28.70 -14 54 39.6 20.8 V G96 – Mt. Lemmon Survey MPS 513956
2014 03 08.47483 14 48 28.68 -14 54 41.6 20.4 V G96 – Mt. Lemmon Survey MPS 513956
2014 03 08.48206 14 48 28.64 -14 54 43.5 21.0 V G96 – Mt. Lemmon Survey MPS 513956
2014 03 28.39693 14 41 47.20 -16 08 31.8 20.6 V 691 – Steward Observatory, Kitt Peak-Spacewatch MPS 513956
2014 03 28.41467 14 41 46.47 -16 08 34.8 20.3 V 691 – Steward Observatory, Kitt Peak-Spacewatch MPS 513956
2014 03 28.43240 14 41 45.78 -16 08 38.1 20.5 V 691 – Steward Observatory, Kitt Peak-Spacewatch MPS 513956
2014 04 01.39401 14 39 02.74 -16 19 15.6   691 – Steward Observatory, Kitt Peak-Spacewatch MPS 513956
2014 04 01.41175 14 39 01.95 -16 19 18.0   691 – Steward Observatory, Kitt Peak-Spacewatch MPS 513956
2014 04 01.42947 14 39 01.12 -16 19 20.4   691 – Steward Observatory, Kitt Peak-Spacewatch MPS 513956
2014 04 05.47917 14 35 49.423 -16 28 41.05 20.1 w F51 – Pan-STARRS 1, Haleakala MPS 510048
2014 04 05.49105 14 35 48.798 -16 28 42.41 20.2 w F51 – Pan-STARRS 1, Haleakala MPS 510048
2014 04 07.33929 14 34 13.64 -16 32 30.1 20.1 V 691 – Steward Observatory, Kitt Peak-Spacewatch MPS 510048
2014 04 07.35995 14 34 12.56 -16 32 32.2 20.1 V 691 – Steward Observatory, Kitt Peak-Spacewatch MPS 510048
2014 04 07.37766 14 34 11.55 -16 32 33.6 20.3 V 691 – Steward Observatory, Kitt Peak-Spacewatch MPS 510048
2014 04 23.22763 14 18 17.71 -16 52 35.4 20.5 V W84 – Cerro Tololo-DECam MPS 511310
2014 04 23.22786 14 18 17.71 -16 52 35.4 19.8 V W84 – Cerro Tololo-DECam MPS 791013
2014 04 23.23079 14 18 17.50 -16 52 35.5 20.5 V W84 – Cerro Tololo-DECam MPS 511310
2014 04 23.23102 14 18 17.50 -16 52 35.6   W84 – Cerro Tololo-DECam MPS 791013
2014 04 23.23395 14 18 17.28 -16 52 35.6 20.5 V W84 – Cerro Tololo-DECam MPS 511310
2014 04 23.23418 14 18 17.28 -16 52 35.7   W84 – Cerro Tololo-DECam MPS 791013
2014 04 23.23710 14 18 17.07 -16 52 35.7 20.5 V W84 – Cerro Tololo-DECam MPS 511310
2014 04 23.23733 14 18 17.07 -16 52 35.8   W84 – Cerro Tololo-DECam MPS 791013
2014 04 23.24027 14 18 16.86 -16 52 35.8 20.5 V W84 – Cerro Tololo-DECam MPS 511310
2014 04 23.24051 14 18 16.86 -16 52 35.9   W84 – Cerro Tololo-DECam MPS 791013
2014 04 24.24962 14 17 11.26 -16 53 12.6 19.9   W84 – Cerro Tololo-DECam MPS 791013
2014 04 24.25281 14 17 11.05 -16 53 12.6   W84 – Cerro Tololo-DECam MPS 791013
2014 04 24.25600 14 17 10.83 -16 53 12.8   W84 – Cerro Tololo-DECam MPS 791013
2014 04 24.25916 14 17 10.62 -16 53 12.9   W84 – Cerro Tololo-DECam MPS 791013
2014 04 24.26233 14 17 10.41 -16 53 13.0   W84 – Cerro Tololo-DECam MPS 791013
2014 04 25.24957 14 16 06.13 -16 53 45.0 19.8 V W84 – Cerro Tololo-DECam MPS 791013
2014 04 25.25268 14 16 05.92 -16 53 45.0   W84 – Cerro Tololo-DECam MPS 791013
2014 04 25.25587 14 16 05.71 -16 53 45.1   W84 – Cerro Tololo-DECam MPS 791013
2014 04 25.25916 14 16 05.49 -16 53 45.2   W84 – Cerro Tololo-DECam MPS 791013
2014 04 25.26240 14 16 05.27 -16 53 45.3   W84 – Cerro Tololo-DECam MPS 791013
2014 04 26.15151 14 15 07.53 -16 54 11.0 19.8 V W84 – Cerro Tololo-DECam MPS 791013
2014 04 26.15474 14 15 07.32 -16 54 11.1   W84 – Cerro Tololo-DECam MPS 791013
2014 04 26.15798 14 15 07.10 -16 54 11.2   W84 – Cerro Tololo-DECam MPS 791013
2014 04 26.16123 14 15 06.88 -16 54 11.3   W84 – Cerro Tololo-DECam MPS 791013
2014 04 26.16449 14 15 06.66 -16 54 11.4   W84 – Cerro Tololo-DECam MPS 791013
2014 04 29.41018 14 11 35.531 -16 55 26.64 19.8 w F51 – Pan-STARRS 1, Haleakala MPS 512649
2014 04 29.42076 14 11 34.825 -16 55 26.83 19.9 w F51 – Pan-STARRS 1, Haleakala MPS 512649
2014 04 29.43135 14 11 34.115 -16 55 27.05 19.8 w F51 – Pan-STARRS 1, Haleakala MPS 512649
2014 05 01.02299 14 09 51.83 -16 55 44.6 19.8 V W84 – Cerro Tololo-DECam MPS 791013
2014 05 01.05742 14 09 49.54 -16 55 45.3   W84 – Cerro Tololo-DECam MPS 791013
2014 05 01.09224 14 09 47.24 -16 55 45.9   W84 – Cerro Tololo-DECam MPS 791013
2014 05 28.28656 13 46 33.398 -16 59 52.55 20.3 w F51 – Pan-STARRS 1, Haleakala MPS 516566
2014 05 28.29867 13 46 32.976 -16 59 53.06 20.4 w F51 – Pan-STARRS 1, Haleakala MPS 516566
2014 05 28.31078 13 46 32.553 -16 59 53.41 20.5 w F51 – Pan-STARRS 1, Haleakala MPS 516566
2014 05 28.32290 13 46 32.133 -16 59 53.97 20.4 w F51 – Pan-STARRS 1, Haleakala MPS 516566
2015 06 19.356517 22 03 55.40 -30 59 15.5 21.9 r 309 – Cerro Paranal MPS 804902
2015 06 19.361204 22 03 55.41 -30 59 16.9 22.1 r 309 – Cerro Paranal MPS 804902
2015 06 19.365880 22 03 55.42 -30 59 18.3 22.1 r 309 – Cerro Paranal MPS 804902
2015 06 19.370568 22 03 55.42 -30 59 19.6 22.0 r 309 – Cerro Paranal MPS 804902
2015 06 19.375244 22 03 55.43 -30 59 21.0 22.1 r 309 – Cerro Paranal MPS 804902
2016 09 02.41736 03 30 13.63 +20 27 54.9 20.7 V G96 – Mt. Lemmon Survey MPS 725666
2016 09 02.42469 03 30 13.81 +20 27 57.4   G96 – Mt. Lemmon Survey MPS 725666
2016 09 02.43195 03 30 14.09 +20 28 00.4 21.9 V G96 – Mt. Lemmon Survey MPS 725666
2016 09 02.43922 03 30 14.26 +20 28 02.8 21.1 V G96 – Mt. Lemmon Survey MPS 725666
2016 10 07.44384 03 31 48.594 +23 44 19.46 20.7 w F51 – Pan-STARRS 1, Haleakala MPS 734416
2016 10 07.45685 03 31 48.197 +23 44 23.14 20.7 w F51 – Pan-STARRS 1, Haleakala MPS 734416
2016 10 07.46988 03 31 47.811 +23 44 26.81 20.6 w F51 – Pan-STARRS 1, Haleakala MPS 734416
2016 10 07.48294 03 31 47.410 +23 44 30.67 20.8 w F51 – Pan-STARRS 1, Haleakala MPS 734416
2016 10 08.11064 03 31 29.26 +23 47 26.2 20.2   J43 – Oukaimeden Observatory, Marrakech MPS 734416
2016 10 08.11914 03 31 29.01 +23 47 28.0 20.4   J43 – Oukaimeden Observatory, Marrakech MPS 734416
2016 10 08.12756 03 31 28.70 +23 47 30.5 20.9   J43 – Oukaimeden Observatory, Marrakech MPS 734416
2016 10 08.13595 03 31 28.42 +23 47 32.7 20.7   J43 – Oukaimeden Observatory, Marrakech MPS 734416
2016 10 09.18406 03 30 56.52 +23 52 25.0 20.3   J43 – Oukaimeden Observatory, Marrakech MPS 734416
2016 10 09.19260 03 30 56.25 +23 52 27.1 20.7   J43 – Oukaimeden Observatory, Marrakech MPS 734416
2016 10 09.20100 03 30 55.97 +23 52 29.1 20.5   J43 – Oukaimeden Observatory, Marrakech MPS 734416
2016 10 09.20939 03 30 55.71 +23 52 31.6 20.4   J43 – Oukaimeden Observatory, Marrakech MPS 734416
2016 10 22.44085 03 21 27.77 +24 45 27.7 20.2 V G96 – Mt. Lemmon Survey MPS 737598
2016 10 22.44516 03 21 27.53 +24 45 28.5 20.4 V G96 – Mt. Lemmon Survey MPS 737598
2016 10 22.44947 03 21 27.29 +24 45 29.1 20.6 V G96 – Mt. Lemmon Survey MPS 737598
2016 10 22.45375 03 21 27.03 +24 45 29.9 20.5 V G96 – Mt. Lemmon Survey MPS 737598
2016 10 25.55956 03 18 33.284 +24 55 18.85 20.4 w F51 – Pan-STARRS 1, Haleakala MPS 737598
2016 10 25.57318 03 18 32.460 +24 55 21.11 20.4 w F51 – Pan-STARRS 1, Haleakala MPS 737598
2016 10 25.58673 03 18 31.649 +24 55 23.39 20.3 w F51 – Pan-STARRS 1, Haleakala MPS 737598
2016 10 25.60039 03 18 30.841 +24 55 25.70 20.2 w F51 – Pan-STARRS 1, Haleakala MPS 737598
2016 11 05.28682 03 07 08.46 +25 19 55.7 20.0 V G96 – Mt. Lemmon Survey MPS 742262
2016 11 05.29284 03 07 08.03 +25 19 56.3 20.1 V G96 – Mt. Lemmon Survey MPS 742262
2016 11 05.29712 03 07 07.74 +25 19 56.7 19.9 V G96 – Mt. Lemmon Survey MPS 742262
2016 11 05.30140 03 07 07.44 +25 19 57.2 19.9 V G96 – Mt. Lemmon Survey MPS 742262
2016 11 10.28830 03 01 22.36 +25 26 23.8 20.2 V G96 – Mt. Lemmon Survey MPS 742262
2016 11 10.29258 03 01 22.09 +25 26 24.6 19.9 V G96 – Mt. Lemmon Survey MPS 742262
2016 11 10.29686 03 01 21.75 +25 26 24.4 19.5 V G96 – Mt. Lemmon Survey MPS 742262
2016 11 10.30117 03 01 21.44 +25 26 24.9 20.1 V G96 – Mt. Lemmon Survey MPS 742262
2016 11 18.22042 02 52 12.64 +25 30 37.0 19.9 V G96 – Mt. Lemmon Survey MPS 745238
2016 11 18.22470 02 52 12.33 +25 30 37.2 19.9 V G96 – Mt. Lemmon Survey MPS 745238
